Погода в Новом Рычане

Россия / Астраханская область     46°22′28″N   48°21′49″E
темп.,
°C
ветер,
м/с
пор.,
м/с
влажн.,
%
обл.,
%
осадки,
мм/ч
давл.,
гПа
погр.,
м
24 сентября, пт
пт2401:00+15с4782100 0.3 1011320
04:00+15с51082100 0.3 1009382
07:00+15с5986100 0.0 1007380
10:00+19сз3260100 0.0 1007755
13:00+18сз7766100 0.0 1008782
16:00+16сз8107081 0.0 1008730
19:00+13зсз71279100 0.0 1010607
22:00+12зсз7137998 0.0 1012528
25 сентября, сб
сб2501:00+11зсз5117433 0.0 1012369
04:00+10зсз487965 0.0 1012167
07:00+9зсз22852 0.0 101329
10:00+16зсз235550 0.0 1013696
13:00+20зсз2335100 0.0 10121438
16:00+20сз3338100 0.0 10121205
19:00+16ссз3550100 0.0 101493
22:00+14ссв115984 0.0 101510
26 сентября, вс
вс2601:00+14з5965100 0.0 1015246
04:00+14з51078100 0.1 1015638
07:00+13зюз4879100 0.1 1016376
10:00+17з68555 0.1 1016953
13:00+20з783958 0.0 10152192
16:00+18з7939100 0.0 10142223
19:00+17зюз71047100 0.0 1014954
22:00+14зюз6117367 0.1 1012765
27 сентября, пн
пн2701:00+15юз81483100 0.1 10101157
04:00+15з9147716 1.3 1008744
07:00+13з813770 0.1 1010753
10:00+15зсз912548 0.1 10111513
13:00+17зсз10133814 0.0 10112168
16:00+16зсз9124096 0.0 10122110
19:00+14сз6115524 0.0 1014595
22:00+12зсз49680 0.0 1015279
28 сентября, вт
вт2801:00+10з48775 0.0 1016156
04:00+10зсз37795 0.0 1016135
07:00+9сз35855 0.0 101887
10:00+16с44555 0.0 1019772
13:00+19с443953 0.0 10201943
16:00+17с654286 0.0 10201614
19:00+14ссв5750100 0.0 1023543
22:00+11с475539 0.0 1024304